EW1558 Weather Reports


Display with metric or nautical units.
time (UTC)temp
F
wind
direction
speed
MPH
gust
MPH
rain 1hr
in
rain 24hr
in
rain mn
in
humidity
%
barometer
mb
20260906224523 71 98 7.0 10.0 0.00 0.00 0.00 76 1016.9
20260906223022 71 94 7.0 10.0 0.00 0.00 0.00 77 1017.0
20260906221527 71 78 7.0 11.0 0.00 0.00 0.00 76 1017.1
20260906220018 71 98 7.0 11.0 0.00 0.00 0.00 77 1017.3
20260906214521 71 108 5.0 8.0 0.00 0.00 0.00 76 1017.5
20260906213018 71 78 7.0 9.0 0.00 0.00 0.00 76 1017.5
20260906211526 71 112 5.0 9.0 0.00 0.00 0.00 78 1017.6
20260906210024 71 113 6.0 10.0 0.00 0.00 0.00 79 1017.6
20260906204516 71 101 6.0 10.0 0.00 0.00 0.00 80 1017.8
20260906203020 71 92 5.0 8.0 0.00 0.00 0.00 80 1017.7
20260906201515 71 98 5.0 8.0 0.00 0.00 0.00 79 1017.7
20260906200029 71 103 5.0 8.0 0.00 0.00 0.00 80 1017.7
20260906194514 71 101 6.0 8.0 0.00 0.00 0.00 79 1017.8
20260906193013 71 110 4.0 8.0 0.00 0.00 0.00 80 1017.7
20260906191513 72 106 4.0 7.0 0.00 0.00 0.00 79 1018.1
20260906190012 72 137 2.0 5.0 0.00 0.00 0.00 79 1018.2
20260906184512 73 128 3.0 6.0 0.00 0.00 0.00 79 1018.1
20260906183025 73 154 2.0 4.0 0.00 0.00 0.00 78 1018.1
20260906181510 73 157 2.0 5.0 0.00 0.00 0.00 78 1018.1
20260906180014 73 162 3.0 6.0 0.00 0.00 0.00 78 1018.0
20260906174508 73 155 2.0 5.0 0.00 0.00 0.00 79 1018.1
20260906173013 71 151 3.0 7.0 0.00 0.00 0.00 82 1018.2
20260906171507 72 158 2.0 5.0 0.00 0.00 0.00 80 1018.5
20260906170005 72 155 3.0 6.0 0.00 0.00 0.00 80 1018.5
20260906164504 71 158 4.0 8.0 0.00 0.00 0.00 80 1018.5
20260906163003 72 161 5.0 8.0 0.00 0.00 0.00 79 1018.5
20260906161501 72 149 4.0 9.0 0.00 0.00 0.00 80 1018.3
20260906160059 71 155 4.0 9.0 0.00 0.00 0.00 82 1018.3
20260906154603 71 160 7.0 9.0 0.00 0.00 0.00 81 1018.2
20260906153100 71 169 7.0 9.0 0.00 0.00 0.00 81 1018.2
20260906151555 71 164 7.0 10.0 0.00 0.00 0.00 83 1018.1
20260906144603 72 163 7.0 9.0 0.00 0.00 0.00 83 1017.9
20260906143054 72 186 5.0 8.0 0.00 0.00 0.00 83 1018.1
20260906141559 72 190 3.0 7.0 0.00 0.00 0.00 87 1017.9
20260906140050 72 186 3.0 8.0 0.00 0.00 0.00 86 1017.9
20260906134545 72 190 4.0 8.0 0.00 0.00 0.00 87 1017.7
20260906133044 71 192 5.0 10.0 0.00 0.00 0.00 88 1017.5
20260906131544 71 196 5.0 10.0 0.00 0.00 0.00 89 1017.4
20260906130047 71 192 5.0 10.0 0.00 0.00 0.00 88 1017.4
20260906124540 71 173 7.0 9.0 0.00 0.00 0.00 88 1017.4
20260906123038 71 167 8.0 11.0 0.00 0.00 0.00 88 1017.1
20260906121536 71 175 7.0 11.0 0.00 0.00 0.00 89 1017.0
20260906120045 71 165 5.0 10.0 0.00 0.00 0.00 91 1016.8
20260906114537 71 161 7.0 10.0 0.00 0.00 0.00 91 1016.6
20260906113031 71 154 3.0 7.0 0.00 0.00 0.00 91 1016.4
20260906111530 71 149 4.0 8.0 0.00 0.00 0.00 91 1016.5
20260906110039 71 154 3.0 7.0 0.00 0.00 0.00 91 1016.3
20260906104527 71 142 3.0 6.0 0.00 0.00 0.00 92 1016.1
20260906103025 71 136 3.0 6.0 0.00 0.00 0.00 93 1016.1
20260906101524 71 144 2.0 6.0 0.00 0.00 0.00 94 1015.8
20260906100022 71 151 2.0 7.0 0.00 0.00 0.00 94 1015.7
20260906094530 69 148 2.0 6.0 0.00 0.00 0.00 98 1015.8
20260906093022 68 53 2.0 5.0 0.00 0.00 0.00 98 1015.8
20260906091520 68 54 0.0 6.0 0.00 0.00 0.00 97 1015.7
20260906090019 68 58 1.0 3.0 0.00 0.00 0.00 97 1015.7
20260906084519 68 35 0.0 4.0 0.00 0.00 0.00 97 1015.7
20260906083017 68 36 0.0 4.0 0.00 0.00 0.00 97 1015.6
20260906081536 68 26 1.0 4.0 0.00 0.00 0.00 97 1015.6
20260906080017 68 15 1.0 3.0 0.00 0.00 0.00 96 1015.4
20260906074513 69 51 0.0 3.0 0.00 0.00 0.00 96 1015.3
20260906073011 69 45 0.0 5.0 0.00 0.00 0.00 96 1015.5
20260906071511 69 39 0.0 3.0 0.00 0.00 0.00 95 1015.4
20260906070010 69 36 0.0 6.0 0.00 0.00 0.00 95 1015.4
20260906064508 70 11 2.0 6.0 0.00 0.00 0.00 94 1015.5
20260906063008 70 40 0.0 5.0 0.00 0.00 0.00 94 1015.4
20260906061507 70 63 1.0 6.0 0.00 0.00 0.00 94 1015.4
20260906060001 71 82 0.0 4.0 0.00 0.00 0.00 94 1015.4
20260906054600 71 85 3.0 8.0 0.00 0.00 0.00 94 1015.4
20260906053104 71 76 7.0 10.0 0.00 0.00 0.00 94 1015.2
20260906051557 71 91 5.0 10.0 0.00 0.00 0.00 94 1015.1
20260906050112 71 67 7.0 10.0 0.00 0.00 0.00 94 1015.0
20260906044554 71 76 5.0 10.0 0.00 0.00 0.00 95 1014.9
20260906043051 71 91 7.0 11.0 0.00 0.00 0.00 95 1014.8
20260906041550 71 94 7.0 11.0 0.00 0.00 0.00 96 1014.6
20260906034559 71 86 8.0 14.0 0.00 0.00 0.00 95 1014.6
20260906033048 71 90 9.0 13.0 0.00 0.00 0.00 96 1014.5
20260906031551 71 76 8.0 13.0 0.00 0.00 0.00 96 1014.5
20260906030046 71 98 8.0 13.0 0.00 0.00 0.00 96 1014.6
20260906024546 71 82 9.0 13.0 0.00 0.00 0.00 97 1014.5
20260906023050 70 76 11.0 14.0 0.00 0.00 0.00 98 1014.5
20260906021554 70 69 8.0 13.0 0.00 0.00 0.00 98 1014.6
20260906020053 70 40 7.0 13.0 0.00 0.00 0.00 97 1014.6
20260906014552 70 86 10.0 15.0 0.00 0.00 0.00 97 1014.6
20260906013043 70 67 8.0 14.0 0.00 0.00 0.00 97 1014.6
20260906011541 70 67 8.0 12.0 0.00 0.00 0.00 98 1014.4
20260906010039 70 57 9.0 15.0 0.00 0.00 0.00 98 1014.1
20260906004539 70 71 11.0 15.0 0.00 0.00 0.00 98 1014.0
20260906003043 71 74 12.0 16.0 0.00 0.00 0.00 96 1014.0
20260906001538 71 57 13.0 18.0 0.00 0.00 0.00 96 1014.0
20260906000037 71 82 13.0 18.0 0.00 0.00 0.00 96 1014.1
20260905234536 71 73 14.0 18.0 0.00 0.00 0.00 96 1014.0
20260905233041 71 88 14.0 19.0 0.00 0.00 0.00 96 1014.0
20260905231535 71 74 12.0 16.0 0.00 0.00 0.00 96 1013.9
20260905230033 71 82 9.0 16.0 0.00 0.00 0.00 96 1013.9